Date String (YYYY-MM-DD hh:mm:ss) UTC,Instrument flags,absolute air pressure of the measurement (hPa),sample flow rate (lpm),inlet stack bypass flow (lpm),air temperature of the measurement (°C),ambient temperature measured by the external sensor (°C),aerosol sample conditioner tube jacket temperature (°C),OPC LED temperature (°C),internal box temperature (°C),relative humidity of the measurement (%),span deviation,mass concentration of particles derived from Lorenz-Mie calculation of OPC scattering (μg/m³),mass concentration of particles derived from Lorenz-Mie calculation of OPC scattering (μg/m³),mass concentration of particles derived from Lorenz-Mie calculation of OPC scattering (μg/m³)
DateTimeUTC,F1_M11,P_M11,Q1_M11,Q2_M11,T1_M11,T2_M11,T3_M11,T4_M11,T5_M11,U1_M11,ZSPAN_M11,X0_M11,X2_M11,X1_M11
2023-11-12 17:00:00,SystemResetWarning,0837.7,5.00,000.00,025.9,025.2,000.0,034.0,027.4,9.1,0000.0,0007.87,0002.54,0001.72
2023-11-12 17:01:00,SystemResetWarning,0837.7,5.00,000.00,025.9,025.2,000.0,034.1,027.4,9.2,0000.0,0007.94,0002.60,0001.76
2023-11-12 17:02:00,SystemResetWarning,0837.7,5.00,000.00,025.9,025.2,000.0,034.1,027.4,9.1,0000.0,0008.19,0002.63,0001.80
2023-11-12 17:03:00,SystemResetWarning,0837.7,5.00,000.00,025.9,025.2,000.0,034.1,027.4,9.0,0000.0,0008.63,0002.63,0001.82
2023-11-12 17:04:00,SystemResetWarning,0837.6,5.00,000.00,025.9,025.2,000.0,034.1,027.4,9.1,0000.0,0008.65,0002.61,0001.85
2023-11-12 17:05:00,SystemResetWarning,0837.6,5.00,000.00,026.0,025.2,000.0,034.1,027.5,9.0,0000.0,0008.38,0002.64,0001.89
2023-11-12 17:06:00,SystemResetWarning,0837.6,5.00,000.00,026.0,025.2,000.0,034.1,027.5,8.9,0000.0,0008.30,0002.64,0001.92
2023-11-12 17:07:00,SystemResetWarning,0837.6,5.00,000.00,026.0,025.3,000.0,034.2,027.5,8.7,0000.0,0008.73,0002.70,0001.97
2023-11-12 17:08:00,SystemResetWarning,0837.6,5.00,000.00,026.0,025.3,000.0,034.2,027.5,8.7,0000.0,0008.75,0002.78,0002.01
2023-11-12 17:09:00,SystemResetWarning,0837.6,5.00,000.00,026.0,025.3,000.0,034.2,027.6,8.5,0000.0,0008.87,0002.89,0002.05
2023-11-12 17:10:00,SystemResetWarning,0837.7,5.00,000.00,026.1,025.3,000.0,034.2,027.6,8.1,0000.0,0008.56,0002.93,0002.09
2023-11-12 17:11:00,SystemResetWarning,0837.7,4.99,000.00,026.1,025.4,000.0,034.2,027.6,8.1,0000.0,0008.41,0002.94,0002.11
2023-11-12 17:12:00,SystemResetWarning,0837.7,4.99,000.00,026.1,025.4,000.0,034.2,027.6,8.2,0000.0,0008.63,0002.92,0002.11
2023-11-12 17:13:00,SystemResetWarning,0837.7,5.00,000.00,026.1,025.4,000.0,034.3,027.7,8.6,0000.0,0008.96,0002.94,0002.11
2023-11-12 17:14:00,SystemResetWarning,0837.7,5.01,000.00,026.1,025.5,000.0,034.3,027.7,8.6,0000.0,0008.90,0002.97,0002.14
2023-11-12 17:15:00,SystemResetWarning,0837.8,5.00,000.00,026.2,025.5,000.0,034.3,027.7,8.6,0000.0,0009.19,0002.99,0002.13
2023-11-12 17:16:00,SystemResetWarning,0837.8,5.01,000.00,026.2,025.5,000.0,034.3,027.7,8.7,0000.0,0009.08,0002.98,0002.11
2023-11-12 17:17:00,SystemResetWarning,0837.8,5.00,000.00,026.2,025.5,000.0,034.3,027.8,8.4,0000.0,0009.09,0002.96,0002.10
2023-11-12 17:18:00,SystemResetWarning,0837.8,5.00,000.00,026.2,025.5,000.0,034.3,027.8,8.5,0000.0,0008.59,0002.96,0002.07
2023-11-12 17:19:00,SystemResetWarning,0837.8,5.00,000.00,026.2,025.5,000.0,034.4,027.8,8.5,0000.0,0008.62,0002.97,0002.06
2023-11-12 17:20:00,SystemResetWarning,0837.8,5.00,000.00,026.2,025.5,000.0,034.4,027.8,8.4,0000.0,0008.57,0002.95,0002.04
2023-11-12 17:21:00,SystemResetWarning,0837.8,4.99,000.00,026.3,025.5,000.0,034.4,027.8,8.4,0000.0,0008.64,0003.00,0002.04
2023-11-12 17:22:00,SystemResetWarning,0837.8,5.00,000.00,026.3,025.6,000.0,034.4,027.8,8.5,0000.0,0008.53,0002.97,0002.03
2023-11-12 17:23:00,SystemResetWarning,0837.8,4.99,000.00,026.3,025.6,000.0,034.4,027.8,8.6,0000.0,0008.44,0002.94,0002.02
2023-11-12 17:24:00,SystemResetWarning,0837.8,5.00,000.00,026.3,025.6,000.0,034.5,027.8,8.7,0000.0,0007.75,0002.94,0002.02
2023-11-12 17:25:00,SystemResetWarning,0837.8,5.00,000.00,026.3,025.6,000.0,034.5,027.9,8.5,0000.0,0007.70,0002.96,0002.03
2023-11-12 17:26:00,SystemResetWarning,0837.8,5.01,000.00,026.3,025.6,000.0,034.5,027.9,8.3,0000.0,0007.22,0002.93,0002.03
2023-11-12 17:27:00,SystemResetWarning,0837.8,5.01,000.00,026.4,025.6,000.0,034.5,027.9,8.5,0000.0,0006.64,0002.91,0002.04
2023-11-12 17:28:00,SystemResetWarning,0837.8,5.00,000.00,026.4,025.6,000.0,034.5,027.9,8.5,0000.0,0006.42,0002.97,0002.07
2023-11-12 17:29:00,SystemResetWarning,0837.8,4.99,000.00,026.4,025.6,000.0,034.5,027.9,8.7,0000.0,0006.54,0003.02,0002.09
2023-11-12 17:30:00,SystemResetWarning,0837.8,5.00,000.00,026.4,025.7,000.0,034.5,027.9,8.4,0000.0,0006.35,0002.98,0002.11
2023-11-12 17:31:00,SystemResetWarning,0837.8,5.00,000.00,026.4,025.7,000.0,034.6,027.9,8.3,0000.0,0006.13,0002.92,0002.13
2023-11-12 17:32:00,SystemResetWarning,0837.8,4.99,000.00,026.4,025.7,000.0,034.6,027.9,8.3,0000.0,0006.04,0002.91,0002.15
2023-11-12 17:33:00,SystemResetWarning,0837.8,5.00,000.00,026.4,025.7,000.0,034.6,028.0,8.1,0000.0,0006.46,0002.92,0002.17
2023-11-12 17:34:00,SystemResetWarning,0837.8,5.00,000.00,026.5,025.7,000.0,034.6,028.0,8.4,0000.0,0007.10,0002.97,0002.19
2023-11-12 17:35:00,SystemResetWarning,0837.8,5.00,000.00,026.5,025.8,000.0,034.6,028.0,8.4,0000.0,0007.15,0003.01,0002.22
2023-11-12 17:36:00,SystemResetWarning,0837.8,4.99,000.00,026.5,025.8,000.0,034.7,028.0,8.4,0000.0,0006.95,0003.03,0002.24
2023-11-12 17:37:00,SystemResetWarning,0837.9,4.99,000.00,026.5,025.8,000.0,034.7,028.1,8.6,0000.0,0006.83,0003.08,0002.26
2023-11-12 17:38:00,SystemResetWarning,0837.9,5.00,000.00,026.5,025.8,000.0,034.7,028.1,8.6,0000.0,0006.52,0003.11,0002.28
2023-11-12 17:39:00,SystemResetWarning,0837.9,5.01,000.00,026.6,025.8,000.0,034.7,028.1,8.6,0000.0,0006.25,0003.13,0002.30
2023-11-12 17:40:00,SystemResetWarning,0837.9,5.01,000.00,026.6,025.9,000.0,034.7,028.1,8.7,0000.0,0006.21,0003.14,0002.33
2023-11-12 17:41:00,SystemResetWarning,0837.9,4.99,000.00,026.6,025.9,000.0,034.7,028.2,8.7,0000.0,0007.02,0003.16,0002.36
2023-11-12 17:42:00,SystemResetWarning,0837.9,4.99,000.00,026.6,025.9,000.0,034.8,028.2,8.5,0000.0,0007.93,0003.22,0002.39
2023-11-12 17:43:00,SystemResetWarning,0837.9,5.00,000.00,026.6,025.9,000.0,034.8,028.2,8.5,0000.0,0008.88,0003.28,0002.42
2023-11-12 17:44:00,SystemResetWarning,0837.9,5.01,000.00,026.7,026.0,000.0,034.8,028.2,8.5,0000.0,0009.72,0003.33,0002.47
2023-11-12 17:45:00,SystemResetWarning,0837.9,5.00,000.00,026.7,026.0,000.0,034.8,028.2,8.4,0000.0,0009.47,0003.34,0002.51
2023-11-12 17:46:00,SystemResetWarning,0837.8,5.01,000.00,026.7,026.0,000.0,034.8,028.3,8.3,0000.0,0009.40,0003.33,0002.53
2023-11-12 17:47:00,SystemResetWarning,0837.8,5.00,000.00,026.7,026.1,000.0,034.8,028.3,8.4,0000.0,0010.26,0003.37,0002.57
2023-11-12 17:48:00,SystemResetWarning,0837.8,4.99,000.00,026.7,026.1,000.0,034.9,028.3,8.2,0000.0,0010.32,0003.40,0002.61
2023-11-12 17:49:00,SystemResetWarning,0837.9,4.99,000.00,026.8,026.1,000.0,034.9,028.3,8.1,0000.0,0010.34,0003.42,0002.64
2023-11-12 17:50:00,SystemResetWarning,0837.9,5.00,000.00,026.8,026.1,000.0,034.9,028.3,8.0,0000.0,0010.41,0003.43,0002.66
2023-11-12 17:51:00,SystemResetWarning,0838.0,5.01,000.00,026.8,026.2,000.0,034.9,028.4,7.9,0000.0,0011.21,0003.46,0002.67
2023-11-12 17:52:00,SystemResetWarning,0838.0,5.01,000.00,026.8,026.2,000.0,035.0,028.4,8.2,0000.0,0011.02,0003.47,0002.68
2023-11-12 17:53:00,SystemResetWarning,0838.0,5.01,000.00,026.9,026.2,000.0,035.0,028.4,8.6,0000.0,0010.70,0003.47,0002.69
2023-11-12 17:54:00,SystemResetWarning,0838.0,4.99,000.00,026.9,026.2,000.0,035.0,028.4,8.6,0000.0,0010.01,0003.45,0002.69
2023-11-12 17:55:00,SystemResetWarning,0837.9,4.99,000.00,026.9,026.3,000.0,035.0,028.5,8.8,0000.0,0008.99,0003.40,0002.67
2023-11-12 17:56:00,SystemResetWarning,0837.9,5.00,000.00,026.9,026.3,000.0,035.0,028.5,8.6,0000.0,0008.76,0003.36,0002.64
2023-11-12 17:57:00,SystemResetWarning,0837.9,5.00,000.00,026.9,026.3,000.0,035.1,028.5,8.7,0000.0,0008.79,0003.35,0002.63
2023-11-12 17:58:00,SystemResetWarning,0837.9,5.00,000.00,027.0,026.3,000.0,035.1,028.5,8.6,0000.0,0008.71,0003.34,0002.63
2023-11-12 17:59:00,SystemResetWarning,0837.9,5.01,000.00,027.0,026.4,000.0,035.1,028.6,8.6,0000.0,0008.65,0003.33,0002.63
